[[{"header":{"parameterUnit":"m.s-1","parameterCategory":2,"la1":30.2991,"la2":30.254,"lo1":-89.0895,"lo2":-89.0444,"dy":0.0017,"dx":0.0017,"nx":28,"ny":28,"refTime":"2024-07-23T03:00:00:Z","depth":"0","parameterNumber":2,"parameterNumberName":"U-component_of_CURRENTS"},"data":[0,0,0,0,0,0,0,0,0,0,0,0,0,0,0,0,0,0,0,0,0,0,0,0,0,0,0,0,0,0,0,0,0,0,0,0,0,0,0,0,0,0,0,0,0,0,0,0,0,0,0,0,0,0,0,0,0,0,0.4274,0.4274,0,0.4317,0.4317,0.4317,0.4308,0.4308,0.4307,0.4306,0.4396,0.4398,0.4401,0,0,0,0,0,0,0,0,0,0,0,0,0,0.4129,0.4132,0.4273,0.4274,0.4275,0.4317,0.4317,0.4317,0.4308,0.4307,0.4307,0.4306,0.4395,0.4398,0.4401,0,0,0,0,0,0,0,0,0,0,0,0,0,0.4182,0.4133,0.4273,0.4278,0.4279,0.4316,0.4317,0.4317,0.4308,0.4307,0.4307,0.4306,0.4394,0.4398,0.4402,0.4444,0,0,0.4415,0.4417,0,0,0,0,0,0,0,0,0.4179,0.4187,0.4276,0.4278,0.4279,0.4309,0.4299,0.4363,0.4308,0.4294,0.4306,0.4306,0.4373,0.4379,0.4384,0.4449,0.4452,0.4415,0.4418,0.442,0.4421,0,0,0,0,0,0,0,0.4175,0.4184,0.4288,0.4277,0.4279,0.4259,0.4266,0.431,0.4336,0.4295,0.4295,0.4305,0.4374,0.438,0.4387,0.4454,0.4415,0.4419,0.4422,0.4423,0.4513,0.4512,0,0,0,0,0,0,0.418,0.4182,0.4286,0.4289,0.4229,0.4263,0.427,0.4297,0.4335,0.434,0.4306,0.4305,0.4373,0.4381,0.439,0.444,0.442,0.4424,0.4426,0.4513,0.4512,0.4512,0,0,0,0,0,0,0.4177,0.419,0.4285,0.4237,0.4248,0.4267,0.4297,0.4299,0.431,0.4343,0.4348,0.4316,0.4373,0.4384,0.442,0.4444,0.4426,0.443,0.4513,0.4513,0.4512,0.4544,0,0,0,0,0,0,0.4173,0.4189,0.4211,0.4238,0.4251,0.4319,0.4298,0.43,0.4318,0.4317,0.4354,0.436,0.4373,0.4413,0.4424,0.4449,0.4433,0.4513,0.4513,0.4512,0.4543,0.4544,0.4546,0,0,0,0,0,0.4168,0.4201,0.4212,0.4225,0.4282,0.4321,0.4326,0.4333,0.432,0.4337,0.4343,0.436,0.4418,0.4417,0.443,0.4457,0.4513,0.4513,0.4512,0.4542,0.4544,0.4546,0,0,0,0,0,0,0.4158,0.4204,0.4217,0.4265,0.4297,0.4321,0.4341,0.434,0.4358,0.4356,0.437,0.4379,0.4415,0.4427,0.4426,0.4475,0.4464,0.4466,0.4482,0.4484,0.4486,0.4577,0.4437,0,0,0,0,0,0.4167,0.4198,0.4242,0.4281,0.4303,0.4323,0.4339,0.4345,0.4364,0.437,0.4386,0.4401,0.4423,0.4446,0.4466,0.451,0.4594,0.4527,0.4529,0.453,0.4609,0.4736,0.4759,0.4511,0.4511,0.4511,0,0,0.4178,0.4204,0.4225,0.428,0.4306,0.4361,0.4331,0.4365,0.4402,0.4381,0.4426,0.4413,0.4433,0.4467,0.4485,0.4484,0.4634,0.453,0.4531,0.4611,0.4738,0.4764,0.4786,0.451,0.451,0.451,0,0,0.4222,0.424,0.4292,0.4323,0.4368,0.4382,0.4396,0.4423,0.4429,0.4461,0.4448,0.4463,0.4487,0.4516,0.4532,0.4562,0.4633,0.4536,0.4636,0.4755,0.4779,0.4801,0.491,0.4942,0.4543,0.4543,0.4543,0,0.4237,0.4311,0.4312,0.4373,0.441,0.44,0.4471,0.4481,0.4507,0.4529,0.448,0.4532,0.4528,0.4612,0.4606,0.4576,0.4654,0.4626,0.4765,0.4789,0.4811,0.4918,0.4953,0.4545,0.4544,0.4544,0.4544,0,0.4332,0.4388,0.442,0.4497,0.453,0.4582,0.4606,0.4625,0.4608,0.4619,0.4667,0.4651,0.4699,0.4664,0.4651,0.4787,0.4793,0.4749,0.4775,0.484,0.4945,0.4981,0.4547,0.4546,0.4546,0.4545,0,0,0.4371,0.4473,0.4483,0.4534,0.4599,0.4632,0.4698,0.4762,0.4803,0.4799,0.4872,0.4878,0.4866,0.4887,0.4856,0.4946,0.5124,0.4925,0.4931,0.5063,0.5408,0.5385,0.5422,0.511,0.5117,0.5122,0.5409,0,0.4453,0.4577,0.4609,0.4717,0.4784,0.4798,0.4857,0.4899,0.4905,0.4957,0.4964,0.5005,0.4951,0.4958,0.5052,0.5098,0.5227,0.5053,0.5306,0.5315,0.5311,0.5466,0.5201,0.5434,0.5445,0.5451,0.5455,0,0.454,0.4607,0.4735,0.4825,0.4857,0.4911,0.499,0.5041,0.511,0.5118,0.5184,0.5177,0.5306,0.5222,0.5454,0.5347,0.5427,0.546,0.5471,0.549,0.5362,0.5376,0.55,0.5278,0.5511,0.5507,0.5503,0,0.4552,0.4686,0.4782,0.4819,0.4926,0.4974,0.5022,0.5089,0.5123,0.5233,0.5266,0.5403,0.5453,0.5602,0.5664,0.5592,0.5912,0.5805,0.5882,0.5878,0.5732,0.5706,0.571,0.6046,0.6045,0.6045,0.6044,0,0.4613,0.4684,0.479,0.4839,0.4923,0.4996,0.5073,0.5131,0.5217,0.5264,0.5355,0.5418,0.5557,0.5705,0.5782,0.5967,0.6029,0.5993,0.599,0.5726,0.5696,0.5558,0.5484,0.6055,0.6053,0.6051,0.6049,0,0.4604,0.4688,0.4786,0.4903,0.4929,0.4981,0.5066,0.5113,0.5217,0.5289,0.5334,0.5486,0.5687,0.5829,0.6057,0.6104,0.6108,0.6318,0.5999,0.5955,0.5795,0.5733,0.573,0.5577,0.6483,0.6485,0.6487,0,0.4605,0.4665,0.4788,0.482,0.4869,0.4944,0.4982,0.5088,0.5129,0.5302,0.5335,0.5559,0.5676,0.6035,0.618,0.6407,0.6159,0.6276,0.6103,0.5843,0.5771,0.5549,0.5401,0.5901,0.5898,0.5895,0.5893,0,0.4586,0.4637,0.4705,0.4776,0.4824,0.487,0.4934,0.4963,0.5086,0.5168,0.5298,0.5423,0.5762,0.5868,0.6171,0.6251,0.5948,0.6229,0.6036,0.5439,0.5126,0.4951,0.5646,0.5867,0.587,0.5872,0.5873,0.5874,0.4538,0.4568,0.4651,0.4711,0.4751,0.4771,0.4752,0.4826,0.488,0.4938,0.5163,0.5258,0.5476,0.587,0.5938,0.5837,0.5873,0.5647,0.5637,0.5468,0.5189,0.586,0.6016,0.6019,0.6022,0.6025,0.6027,0,0.4463,0.4511,0.457,0.4613,0.4607,0.4667,0.4683,0.4619,0.461,0.475,0.485,0.4968,0.5094,0.5233,0.5349,0.524,0.5003,0.5067,0.4633,0.4553,0.5213,0.5046,0.4902,0.4902,0.4902,0.4902,0.4903,0.4903,0.4416,0.4453,0.45,0.4462,0.4468,0.4364,0.4338,0.4254,0.4281,0.424,0.4253,0.4398,0.4624,0.4799,0.4698,0.4613,0.4268,0.4134,0.4159,0.4529,0.4576,0.4621,0.4441,0.4173,0.4172,0.3231,0.3224,0.3219]},{"header":{"parameterUnit":"m.s-1","parameterCategory":2,"la1":30.2991,"la2":30.254,"lo1":-89.0895,"lo2":-89.0444,"dy":0.0017,"dx":0.0017,"nx":28,"ny":28,"refTime":"2024-07-23T03:00:00:Z","depth":"0","parameterNumber":3,"parameterNumberName":"V-component_of_CURRENTS"},"data":[0,0,0,0,0,0,0,0,0,0,0,0,0,0,0,0,0,0,0,0,0,0,0,0,0,0,0,0,0,0,0,0,0,0,0,0,0,0,0,0,0,0,0,0,0,0,0,0,0,0,0,0,0,0,0,0,0,0,-0.0878,-0.0879,0,-0.1012,-0.1014,-0.1016,-0.1095,-0.1095,-0.1095,-0.1095,-0.1235,-0.1239,-0.1243,0,0,0,0,0,0,0,0,0,0,0,0,0,-0.0772,-0.0773,-0.0877,-0.0879,-0.088,-0.1012,-0.1014,-0.1016,-0.1095,-0.1095,-0.1095,-0.1095,-0.1234,-0.1239,-0.1243,0,0,0,0,0,0,0,0,0,0,0,0,0,-0.0856,-0.0774,-0.0877,-0.0933,-0.0939,-0.1011,-0.1014,-0.1017,-0.1095,-0.1095,-0.1095,-0.1095,-0.1233,-0.1238,-0.1244,-0.1277,0,0,-0.1261,-0.1263,0,0,0,0,0,0,0,0,-0.0851,-0.086,-0.0923,-0.0929,-0.0936,-0.1034,-0.1028,-0.1103,-0.1095,-0.104,-0.1095,-0.1095,-0.1166,-0.1177,-0.1207,-0.1284,-0.129,-0.1261,-0.1265,-0.1267,-0.1268,0,0,0,0,0,0,0,-0.0845,-0.0856,-0.0934,-0.0925,-0.0932,-0.0979,-0.0991,-0.1043,-0.1104,-0.1044,-0.105,-0.1059,-0.117,-0.1202,-0.1211,-0.1292,-0.1261,-0.1266,-0.1269,-0.1272,-0.139,-0.1389,0,0,0,0,0,0,-0.0817,-0.085,-0.093,-0.0938,-0.0889,-0.0981,-0.0994,-0.1005,-0.1103,-0.1117,-0.1059,-0.1062,-0.1192,-0.1205,-0.1216,-0.1207,-0.1267,-0.1272,-0.1275,-0.139,-0.139,-0.1389,0,0,0,0,0,0,-0.0815,-0.0823,-0.0924,-0.0894,-0.091,-0.0981,-0.0994,-0.1008,-0.1032,-0.1114,-0.1128,-0.1068,-0.1193,-0.1209,-0.1249,-0.1215,-0.1275,-0.128,-0.139,-0.139,-0.139,-0.1224,0,0,0,0,0,0,-0.0811,-0.0822,-0.0818,-0.0892,-0.091,-0.0942,-0.0994,-0.101,-0.1037,-0.1042,-0.1126,-0.114,-0.1194,-0.124,-0.1254,-0.1224,-0.1284,-0.139,-0.139,-0.139,-0.1229,-0.1218,-0.1208,0,0,0,0,0,-0.0807,-0.0781,-0.0818,-0.0827,-0.0904,-0.094,-0.0953,-0.1008,-0.1036,-0.1033,-0.1095,-0.1137,-0.1248,-0.1244,-0.1261,-0.1231,-0.1391,-0.139,-0.139,-0.1234,-0.122,-0.1208,0,0,0,0,0,0,-0.0718,-0.0789,-0.083,-0.0825,-0.0873,-0.0951,-0.0947,-0.0997,-0.1047,-0.1049,-0.1135,-0.1152,-0.1173,-0.1235,-0.1229,-0.1269,-0.1326,-0.1329,-0.1203,-0.119,-0.1179,-0.1119,-0.1289,0,0,0,0,0,-0.0702,-0.0709,-0.0785,-0.0778,-0.0796,-0.0876,-0.0898,-0.0938,-0.0993,-0.1016,-0.1077,-0.1142,-0.1188,-0.1213,-0.1265,-0.1288,-0.1281,-0.1285,-0.1274,-0.1264,-0.1229,-0.1189,-0.1169,-0.1388,-0.1388,-0.1388,0,0,-0.0664,-0.0703,-0.0707,-0.0762,-0.0803,-0.081,-0.0888,-0.0905,-0.0909,-0.1022,-0.1037,-0.1103,-0.1187,-0.1206,-0.1221,-0.125,-0.1197,-0.1263,-0.1253,-0.1224,-0.1186,-0.1164,-0.1144,-0.1388,-0.1388,-0.1388,0,0,-0.0583,-0.0627,-0.0609,-0.0642,-0.0695,-0.0745,-0.0744,-0.0819,-0.0848,-0.0881,-0.0956,-0.0991,-0.1081,-0.1117,-0.1151,-0.1116,-0.1139,-0.1152,-0.1045,-0.1006,-0.0986,-0.0968,-0.0908,-0.0886,-0.1148,-0.1147,-0.1147,0,-0.0533,-0.0538,-0.0605,-0.0595,-0.061,-0.0706,-0.0689,-0.0727,-0.0806,-0.0813,-0.0859,-0.0951,-0.1026,-0.1028,-0.1025,-0.1082,-0.1062,-0.108,-0.0984,-0.0967,-0.0951,-0.0895,-0.0872,-0.1139,-0.114,-0.1141,-0.1142,0,-0.0453,-0.0458,-0.044,-0.0471,-0.0488,-0.0487,-0.0551,-0.0568,-0.0621,-0.0665,-0.0681,-0.0775,-0.0822,-0.0862,-0.0936,-0.0879,-0.0898,-0.0966,-0.0998,-0.0917,-0.0865,-0.0845,-0.1128,-0.1131,-0.1133,-0.1135,0,0,-0.0343,-0.0381,-0.0374,-0.0384,-0.0429,-0.0439,-0.0423,-0.0447,-0.0428,-0.0494,-0.0458,-0.055,-0.0596,-0.0639,-0.0729,-0.0712,-0.0597,-0.0786,-0.0788,-0.069,-0.0479,-0.0516,-0.0498,-0.0643,-0.0639,-0.0636,-0.0476,0,-0.0268,-0.0239,-0.0269,-0.0238,-0.024,-0.0298,-0.0276,-0.03,-0.0333,-0.0319,-0.0385,-0.0397,-0.0513,-0.0531,-0.0522,-0.059,-0.054,-0.0632,-0.0603,-0.0601,-0.0614,-0.0475,-0.0481,-0.0342,-0.0457,-0.0453,-0.0451,0,-0.019,-0.0191,-0.015,-0.016,-0.0158,-0.014,-0.0128,-0.0121,-0.0116,-0.0132,-0.0131,-0.019,-0.0179,-0.0294,-0.0282,-0.0334,-0.0373,-0.0419,-0.0415,-0.0488,-0.0601,-0.0451,-0.0301,-0.0571,-0.042,-0.0423,-0.0425,0,-0.0126,-0.0108,-0.0082,-0.0085,-0.0097,-0.007,-0.0067,-0.006,-0.0034,-0.0,0.0037,0.0028,0.0034,-0.0001,-0.0109,-0.0177,-0.0081,-0.0193,-0.0243,-0.0246,-0.0263,-0.0275,-0.0339,-0.0134,-0.0134,-0.0134,-0.0135,0,-0.0062,-0.0041,-0.0051,-0.0042,0.0012,-0.0008,0.0064,0.0066,0.0115,0.0189,0.0141,0.0208,0.0107,0.0119,0.0014,-0.0026,0.0029,-0.0163,-0.0189,-0.0209,-0.0217,-0.047,-0.0628,-0.0128,-0.013,-0.0131,-0.0132,0,-0.0008,-0.0019,0.0008,0.002,0.0033,0.0072,0.0132,0.0191,0.0225,0.0334,0.0361,0.0383,0.0415,0.032,0.0278,0.014,-0.0039,0.0055,0.0048,0.0017,-0.0325,-0.0472,-0.0503,-0.061,0.0049,0.005,0.005,0,0.0018,0.0034,0.0058,0.0089,0.0097,0.0154,0.0206,0.0241,0.0311,0.0444,0.0514,0.0583,0.067,0.0609,0.0402,0.0294,0.0026,0.0144,-0.0006,-0.0288,-0.0471,-0.058,-0.0677,0.0053,0.0053,0.0054,0.0054,0,0.0074,0.008,0.0105,0.016,0.0213,0.0277,0.0354,0.0433,0.0514,0.0653,0.0838,0.0938,0.0868,0.079,0.0577,0.0416,-0.0061,0.0141,-0.0137,-0.0438,-0.0567,-0.0703,-0.0111,0.0056,0.0056,0.0055,0.0055,0.0055,0.0127,0.0156,0.0191,0.0246,0.0313,0.041,0.0516,0.0644,0.0826,0.1107,0.1122,0.1397,0.112,0.0856,0.055,-0.0044,-0.0035,-0.024,-0.0374,-0.0441,-0.0616,-0.0014,0.0086,0.0086,0.0086,0.0086,0.0086,0,0.0193,0.022,0.0278,0.0355,0.0455,0.0462,0.063,0.0801,0.1089,0.139,0.1629,0.1717,0.1317,0.0822,0.0046,-0.0445,-0.0662,-0.0741,-0.0918,-0.0979,-0.0413,-0.0496,-0.0535,-0.0535,-0.0535,-0.0535,-0.0534,-0.0534,0.0234,0.0292,0.0311,0.0467,0.0541,0.0725,0.0848,0.1138,0.1411,0.1882,0.2157,0.2295,0.1892,0.0364,-0.076,-0.1045,-0.1408,-0.1451,-0.1636,-0.1321,-0.1286,-0.1254,-0.137,-0.1592,-0.1593,-0.2151,-0.2157,-0.2162]}],[{"header":{"parameterUnit":"m.s-1","parameterCategory":2,"la1":30.2991,"la2":30.254,"lo1":-89.0895,"lo2":-89.0444,"dy":0.0017,"dx":0.0017,"nx":28,"ny":28,"refTime":"2024-07-23T03:00:00:Z","depth":"2","parameterNumber":2,"parameterNumberName":"U-component_of_CURRENTS"},"data":[0,0,0,0,0,0,0,0,0,0,0,0,0,0,0,0,0,0,0,0,0,0,0,0,0,0,0,0,0,0,0,0,0,0,0,0,0,0,0,0,0,0,0,0,0,0,0,0,0,0,0,0,0,0,0,0,0,0,0.2681,0.2682,0,0.2809,0.2812,0.2815,0.2911,0.291,0.291,0.2909,0.2858,0.2857,0.2856,0,0,0,0,0,0,0,0,0,0,0,0,0,0.2745,0.2743,0.2681,0.2682,0.2682,0.2809,0.2812,0.2815,0.2911,0.291,0.2909,0.2909,0.2858,0.2857,0.2856,0,0,0,0,0,0,0,0,0,0,0,0,0,0.2793,0.2743,0.2681,0.2734,0.2739,0.2808,0.2812,0.2816,0.2911,0.291,0.2909,0.2909,0.2858,0.2857,0.2856,0.2861,0,0,0.2851,0.2851,0,0,0,0,0,0,0,0,0.279,0.2792,0.2726,0.2731,0.2736,0.2831,0.2815,0.2817,0.2911,0.2861,0.2909,0.2908,0.2823,0.2825,0.2873,0.2858,0.2856,0.2851,0.285,0.285,0.2849,0,0,0,0,0,0,0,0.2786,0.2788,0.2747,0.2726,0.2732,0.2828,0.2833,0.2819,0.2852,0.2865,0.2869,0.286,0.2826,0.2875,0.2872,0.2855,0.2851,0.285,0.2849,0.2849,0.2823,0.2823,0,0,0,0,0,0,0.273,0.2783,0.2742,0.2749,0.2746,0.2825,0.2832,0.2813,0.2856,0.286,0.2861,0.2864,0.2878,0.2874,0.287,0.2984,0.285,0.2848,0.2848,0.2823,0.2823,0.2823,0,0,0,0,0,0,0.273,0.2724,0.2737,0.2759,0.2765,0.2821,0.2801,0.2815,0.2889,0.2852,0.2855,0.292,0.2877,0.2872,0.2849,0.2977,0.2848,0.2846,0.2823,0.2823,0.2823,0.3142,0,0,0,0,0,0,0.2732,0.2724,0.2774,0.2754,0.2761,0.2849,0.2801,0.2818,0.2876,0.2883,0.2902,0.2897,0.2876,0.2852,0.2848,0.2973,0.2845,0.2822,0.2823,0.2823,0.3131,0.3153,0.3171,0,0,0,0,0,0.2734,0.2787,0.2775,0.2774,0.2799,0.2852,0.2871,0.2917,0.2879,0.297,0.2907,0.2898,0.2851,0.285,0.2846,0.2975,0.2822,0.2823,0.2823,0.3122,0.3148,0.3171,0,0,0,0,0,0,0.2843,0.2799,0.2786,0.2825,0.2863,0.2864,0.2955,0.2934,0.2968,0.2961,0.2895,0.2887,0.2918,0.286,0.286,0.2949,0.2838,0.2837,0.3066,0.3091,0.3111,0.3146,0.2844,0,0,0,0,0,0.2879,0.2903,0.2881,0.2919,0.2945,0.2948,0.299,0.3001,0.2984,0.3006,0.2988,0.2942,0.2916,0.2931,0.29,0.2953,0.2919,0.302,0.3041,0.306,0.3074,0.3098,0.3126,0.2824,0.2824,0.2824,0,0,0.2911,0.2903,0.2911,0.2946,0.2978,0.3027,0.2981,0.3053,0.3091,0.2983,0.3052,0.3011,0.2929,0.2995,0.3007,0.2974,0.3132,0.306,0.3079,0.3082,0.3102,0.3133,0.316,0.2825,0.2825,0.2824,0,0,0.297,0.3002,0.304,0.3091,0.314,0.3144,0.3158,0.318,0.3223,0.3253,0.3169,0.3173,0.3165,0.315,0.3125,0.3215,0.3218,0.3234,0.3416,0.3443,0.347,0.3494,0.3542,0.3568,0.3275,0.3275,0.3276,0,0.3022,0.3037,0.3075,0.3139,0.3163,0.3181,0.3219,0.3287,0.3295,0.3313,0.3306,0.3293,0.3234,0.3283,0.3335,0.3277,0.3306,0.3359,0.3482,0.3504,0.3523,0.3565,0.359,0.3291,0.3289,0.3287,0.3286,0,0.3084,0.3134,0.3176,0.3227,0.3295,0.3345,0.3388,0.3467,0.3481,0.3508,0.3586,0.3549,0.3527,0.3554,0.3486,0.3609,0.3594,0.3499,0.3454,0.3575,0.3609,0.3629,0.3313,0.3307,0.3303,0.3299,0,0,0.3029,0.3178,0.3186,0.3215,0.3331,0.3353,0.3474,0.3544,0.358,0.3708,0.3763,0.3808,0.3819,0.3784,0.3752,0.3829,0.4,0.3775,0.3769,0.3882,0.4128,0.3989,0.3996,0.3979,0.3983,0.3986,0.4122,0,0.304,0.3132,0.3212,0.3285,0.332,0.3414,0.35,0.3593,0.3673,0.3763,0.3847,0.3888,0.3903,0.3918,0.4013,0.3932,0.4059,0.3974,0.3937,0.3936,0.3847,0.4014,0.372,0.3805,0.414,0.4143,0.4145,0,0.3022,0.3085,0.3154,0.3257,0.3282,0.3347,0.3446,0.3541,0.3715,0.379,0.3943,0.3989,0.4115,0.4095,0.4208,0.4176,0.4204,0.4205,0.4207,0.3973,0.3831,0.3716,0.3826,0.4176,0.4174,0.4172,0.417,0,0.2875,0.3013,0.3044,0.309,0.3241,0.329,0.3378,0.354,0.3625,0.3825,0.3905,0.4074,0.4129,0.4231,0.4312,0.4255,0.4459,0.4313,0.4257,0.4247,0.3924,0.3878,0.4457,0.4457,0.4457,0.4456,0.4456,0,0.2798,0.2822,0.2981,0.3,0.3055,0.3196,0.3281,0.3411,0.3595,0.3716,0.3912,0.4035,0.418,0.4329,0.438,0.4419,0.4511,0.4333,0.4285,0.4024,0.3988,0.4211,0.4181,0.4461,0.446,0.4459,0.4458,0,0.2639,0.2738,0.2785,0.2937,0.299,0.3035,0.3242,0.3307,0.3505,0.3673,0.3755,0.4007,0.4164,0.4354,0.4483,0.4444,0.4507,0.4529,0.4247,0.416,0.4252,0.4236,0.4364,0.4361,0.4358,0.4355,0.4353,0,0.2575,0.258,0.2723,0.2764,0.2843,0.2952,0.3033,0.3248,0.334,0.366,0.372,0.397,0.4103,0.4286,0.4325,0.4415,0.4536,0.4156,0.3929,0.431,0.4249,0.4237,0.4225,0.3657,0.3649,0.3643,0.3638,0,0.2456,0.2502,0.2548,0.2644,0.2719,0.2816,0.2958,0.3013,0.3281,0.3396,0.3589,0.3724,0.3952,0.3889,0.4053,0.4053,0.4083,0.4017,0.4529,0.3704,0.3646,0.3585,0.3596,0.3583,0.3588,0.3592,0.3595,0.3598,0.2367,0.2374,0.2443,0.2523,0.2608,0.2686,0.2759,0.2876,0.2981,0.3171,0.3333,0.343,0.3529,0.3537,0.353,0.3553,0.3757,0.3576,0.3594,0.362,0.3491,0.3428,0.3304,0.3307,0.3311,0.3314,0.3316,0,0.2269,0.23,0.2342,0.2424,0.2458,0.258,0.2714,0.2721,0.28,0.2919,0.3021,0.2808,0.2813,0.2986,0.2922,0.2912,0.2879,0.2798,0.2738,0.2797,0.2848,0.2678,0.2276,0.2273,0.2269,0.2266,0,0,0.2216,0.2207,0.2232,0.2261,0.2343,0.2425,0.2509,0.2503,0.2557,0.2472,0.2497,0.2656,0.2833,0.2463,0.2458,0.2368,0.2546,0.2281,0.3125,0.311,0.3156,0.3321,0.3128,0,0,0,0,0]},{"header":{"parameterUnit":"m.s-1","parameterCategory":2,"la1":30.2991,"la2":30.254,"lo1":-89.0895,"lo2":-89.0444,"dy":0.0017,"dx":0.0017,"nx":28,"ny":28,"refTime":"2024-07-23T03:00:00:Z","depth":"2","parameterNumber":3,"parameterNumberName":"V-component_of_CURRENTS"},"data":[0,0,0,0,0,0,0,0,0,0,0,0,0,0,0,0,0,0,0,0,0,0,0,0,0,0,0,0,0,0,0,0,0,0,0,0,0,0,0,0,0,0,0,0,0,0,0,0,0,0,0,0,0,0,0,0,0,0,0.0056,0.0055,0,-0.0119,-0.0122,-0.0126,-0.0306,-0.0307,-0.0308,-0.0308,-0.0434,-0.0437,-0.0439,0,0,0,0,0,0,0,0,0,0,0,0,0,0.0011,0.0013,0.0056,0.0055,0.0055,-0.0118,-0.0122,-0.0127,-0.0306,-0.0307,-0.0308,-0.0309,-0.0433,-0.0436,-0.044,0,0,0,0,0,0,0,0,0,0,0,0,0,-0.0064,0.0013,0.0056,-0.0042,-0.0051,-0.0117,-0.0123,-0.0128,-0.0306,-0.0307,-0.0308,-0.0309,-0.0432,-0.0436,-0.044,-0.0441,0,0,-0.0452,-0.0454,0,0,0,0,0,0,0,0,-0.0059,-0.0065,-0.0027,-0.0035,-0.0045,-0.0175,-0.0184,-0.0224,-0.0305,-0.0229,-0.0308,-0.031,-0.033,-0.0342,-0.04,-0.0447,-0.0453,-0.0452,-0.0455,-0.0457,-0.0458,0,0,0,0,0,0,0,-0.0054,-0.0059,-0.0032,-0.0027,-0.0038,-0.0152,-0.0164,-0.0195,-0.0284,-0.0235,-0.0244,-0.0234,-0.0338,-0.0396,-0.0404,-0.0455,-0.0452,-0.0456,-0.0458,-0.046,-0.0464,-0.0462,0,0,0,0,0,0,0.0019,-0.0052,-0.0026,-0.0036,-0.0034,-0.0148,-0.0162,-0.0148,-0.0285,-0.0302,-0.0232,-0.0241,-0.0389,-0.0399,-0.0408,-0.0463,-0.0456,-0.046,-0.0462,-0.0466,-0.0463,-0.0461,0,0,0,0,0,0,0.0018,0.0023,-0.0019,-0.0035,-0.0045,-0.0142,-0.0127,-0.015,-0.0226,-0.028,-0.0301,-0.0283,-0.039,-0.0403,-0.0402,-0.0467,-0.0462,-0.0466,-0.0469,-0.0465,-0.0462,-0.0541,0,0,0,0,0,0,0.0018,0.0024,0.0001,-0.0028,-0.0041,-0.0084,-0.0124,-0.0152,-0.0207,-0.0222,-0.0329,-0.0342,-0.0392,-0.0395,-0.0406,-0.0472,-0.0469,-0.0472,-0.0467,-0.0463,-0.0541,-0.0541,-0.054,0,0,0,0,0,0.0017,0.0007,0.0002,0.0003,-0.0048,-0.0083,-0.0105,-0.0191,-0.0208,-0.0262,-0.0274,-0.034,-0.0377,-0.0396,-0.0409,-0.0479,-0.0474,-0.0468,-0.0464,-0.0541,-0.0541,-0.054,0,0,0,0,0,0,-0.003,-0.0011,-0.0018,-0.0024,-0.0056,-0.0107,-0.0163,-0.0188,-0.0252,-0.0258,-0.0307,-0.032,-0.0348,-0.0361,-0.038,-0.045,-0.0438,-0.0436,-0.0493,-0.0493,-0.0492,-0.0467,-0.0472,0,0,0,0,0,-0.0036,-0.0035,-0.0037,-0.0043,-0.0057,-0.0107,-0.0144,-0.0181,-0.0206,-0.0243,-0.0291,-0.0316,-0.0336,-0.0368,-0.0387,-0.0425,-0.0414,-0.0467,-0.0467,-0.0468,-0.0445,-0.0437,-0.0436,-0.0444,-0.0444,-0.0444,0,0,-0.0043,-0.0037,-0.0036,-0.0054,-0.009,-0.0109,-0.0141,-0.0182,-0.0205,-0.0235,-0.0295,-0.0315,-0.0331,-0.0378,-0.0395,-0.0407,-0.0463,-0.0461,-0.0463,-0.0439,-0.0432,-0.0432,-0.0432,-0.0441,-0.0441,-0.0442,0,0,-0.0042,-0.0059,-0.0061,-0.0085,-0.0112,-0.0137,-0.0136,-0.0182,-0.0233,-0.0254,-0.0273,-0.0286,-0.0352,-0.0374,-0.0389,-0.0374,-0.0444,-0.0416,-0.0434,-0.0429,-0.043,-0.0431,-0.0452,-0.0453,-0.0439,-0.0439,-0.0439,0,-0.0058,-0.0047,-0.0075,-0.0086,-0.0096,-0.0133,-0.0137,-0.0191,-0.023,-0.0241,-0.0271,-0.0313,-0.0339,-0.0367,-0.038,-0.0384,-0.0405,-0.046,-0.0436,-0.0436,-0.0435,-0.0456,-0.0456,-0.0442,-0.0442,-0.0441,-0.0441,0,-0.0049,-0.006,-0.0064,-0.0075,-0.0106,-0.0115,-0.0146,-0.0187,-0.0222,-0.0254,-0.029,-0.032,-0.0331,-0.0378,-0.0391,-0.0415,-0.0442,-0.0431,-0.0458,-0.044,-0.0462,-0.0462,-0.0447,-0.0446,-0.0445,-0.0444,0,0,0.0005,-0.0047,-0.0043,-0.0049,-0.0094,-0.0097,-0.0137,-0.0164,-0.0156,-0.0247,-0.0243,-0.0316,-0.0332,-0.0339,-0.038,-0.0413,-0.0449,-0.0446,-0.0444,-0.0502,-0.0482,-0.0502,-0.0504,-0.0471,-0.0471,-0.047,-0.0516,0,0.0029,0.0023,-0.0014,-0.0015,-0.0016,-0.0065,-0.0083,-0.0118,-0.0153,-0.0164,-0.0231,-0.0231,-0.0323,-0.0322,-0.0378,-0.039,-0.0446,-0.0439,-0.0456,-0.0455,-0.0506,-0.0502,-0.0456,-0.0493,-0.0515,-0.0515,-0.0515,0,0.0073,0.0062,0.0062,0.0041,0.0037,0.0027,0.0023,0.0001,-0.0035,-0.0058,-0.0105,-0.0139,-0.0184,-0.0246,-0.0335,-0.0343,-0.0416,-0.0464,-0.0466,-0.0446,-0.0473,-0.05,-0.0491,-0.0514,-0.0514,-0.0514,-0.0514,0,0.0161,0.0131,0.0137,0.0127,0.0087,0.0083,0.0069,0.004,0.0061,0.0034,0.0077,-0.003,-0.0011,-0.0139,-0.0235,-0.0294,-0.0322,-0.0392,-0.0496,-0.05,-0.0435,-0.0433,-0.0458,-0.0458,-0.0458,-0.0457,-0.0457,0,0.0226,0.0235,0.0181,0.0188,0.0226,0.0162,0.0214,0.0188,0.0194,0.0274,0.0157,0.0223,0.0017,-0.0025,-0.0183,-0.0313,-0.027,-0.0488,-0.0503,-0.0462,-0.0462,-0.0443,-0.044,-0.0459,-0.0459,-0.0459,-0.0458,0,0.0324,0.0282,0.03,0.0265,0.027,0.0302,0.033,0.0387,0.0368,0.048,0.0493,0.0433,0.0376,0.0176,0.002,-0.0189,-0.0329,-0.0389,-0.0342,-0.0353,-0.0551,-0.0551,-0.0558,-0.0559,-0.056,-0.0561,-0.0561,0,0.0363,0.038,0.0386,0.0427,0.0415,0.0455,0.0515,0.049,0.0575,0.0643,0.0738,0.0692,0.0722,0.0452,0.0103,-0.0188,-0.0246,-0.0393,-0.0499,-0.0542,-0.0557,-0.0556,-0.0555,-0.046,-0.0459,-0.0459,-0.0459,0,0.0443,0.0448,0.0472,0.0567,0.063,0.0722,0.0799,0.0895,0.092,0.1049,0.1219,0.124,0.0936,0.0644,0.0174,-0.0037,-0.0358,-0.0402,-0.0403,-0.0443,-0.0453,-0.0466,-0.0468,-0.0456,-0.0456,-0.0457,-0.0457,-0.0457,0.0511,0.0565,0.0613,0.0718,0.0818,0.099,0.1085,0.1227,0.1422,0.1564,0.1554,0.1546,0.1101,0.0505,0.0154,-0.0279,-0.0307,-0.0511,-0.051,-0.051,-0.0492,-0.0502,-0.0513,-0.0514,-0.0514,-0.0515,-0.0515,0,0.0593,0.0659,0.0764,0.0919,0.1099,0.1087,0.1281,0.1415,0.1697,0.1759,0.1864,0.1478,0.1098,0.0621,-0.0015,-0.041,-0.0437,-0.053,-0.0489,-0.0489,-0.049,-0.047,-0.0487,-0.0488,-0.0488,-0.0489,0,0,0.0634,0.0759,0.0831,0.114,0.1256,0.1452,0.1555,0.1784,0.1857,0.197,0.1884,0.1688,0.114,0.0667,0.018,-0.015,-0.0236,-0.0214,-0.0199,-0.0094,-0.009,-0.0444,-0.0409,0,0,0,0,0]}],[{"header":{"parameterUnit":"m.s-1","parameterCategory":2,"la1":30.2991,"la2":30.254,"lo1":-89.0895,"lo2":-89.0444,"dy":0.0017,"dx":0.0017,"nx":28,"ny":28,"refTime":"2024-07-23T03:00:00:Z","depth":"4","parameterNumber":2,"parameterNumberName":"U-component_of_CURRENTS"},"data":[0,0,0,0,0,0,0,0,0,0,0,0,0,0,0,0,0,0,0,0,0,0,0,0,0,0,0,0,0,0,0,0,0,0,0,0,0,0,0,0,0,0,0,0,0,0,0,0,0,0,0,0,0,0,0,0,0,0,0.1033,0.1033,0,0.1029,0.1028,0.1027,0.0958,0.0957,0.0956,0.0955,0.1101,0.1105,0.1109,0,0,0,0,0,0,0,0,0,0,0,0,0,0.0919,0.0921,0.1033,0.1034,0.1035,0.1029,0.1028,0.1026,0.0958,0.0957,0.0956,0.0955,0.1099,0.1104,0.111,0,0,0,0,0,0,0,0,0,0,0,0,0,0.0936,0.0922,0.1032,0.1008,0.1006,0.1029,0.1028,0.1026,0.0958,0.0957,0.0956,0.0955,0.1097,0.1104,0.1111,0.1174,0,0,0.1131,0.1134,0,0,0,0,0,0,0,0,0.0936,0.0939,0.101,0.101,0.1008,0.1002,0.1041,0.1087,0.0958,0.0964,0.0955,0.0954,0.109,0.1097,0.108,0.1181,0.1187,0.1132,0.1136,0.1139,0.1141,0,0,0,0,0,0,0,0.0935,0.0939,0.1019,0.1012,0.1011,0.0977,0.0977,0.1048,0.1027,0.0964,0.0962,0.098,0.1088,0.1074,0.1084,0.119,0.1132,0.1138,0.1142,0.1145,0.1388,0.139,0,0,0,0,0,0,0.0963,0.0939,0.102,0.1021,0.0981,0.0981,0.0981,0.0996,0.1023,0.1028,0.0981,0.0977,0.1063,0.1076,0.1089,0.1213,0.1139,0.1145,0.1149,0.1386,0.1389,0.1391,0,0,0,0,0,0,0.096,0.097,0.102,0.0988,0.0993,0.0986,0.1002,0.0997,0.1013,0.1036,0.1041,0.1008,0.1062,0.108,0.1195,0.1216,0.1148,0.1155,0.1383,0.1387,0.139,0.1432,0,0,0,0,0,0,0.0957,0.0969,0.0989,0.099,0.0997,0.104,0.1004,0.0998,0.103,0.1025,0.1062,0.1071,0.1063,0.1185,0.1202,0.1225,0.116,0.138,0.1385,0.1389,0.1427,0.1436,0.1444,0,0,0,0,0,0.0953,0.0973,0.0989,0.1,0.1025,0.1043,0.1041,0.1024,0.1033,0.1035,0.1091,0.1072,0.1223,0.1195,0.1213,0.1238,0.1378,0.1383,0.1388,0.1424,0.1435,0.1444,0,0,0,0,0,0,0.0921,0.097,0.0987,0.102,0.1042,0.1035,0.1044,0.1057,0.1097,0.1108,0.1132,0.1147,0.1251,0.1257,0.1224,0.1321,0.1287,0.1296,0.1307,0.1318,0.1326,0.139,0.1166,0,0,0,0,0,0.0935,0.0971,0.1005,0.1035,0.1052,0.1065,0.1077,0.1075,0.1113,0.1126,0.1168,0.1218,0.1282,0.1312,0.1365,0.1441,0.1464,0.146,0.1469,0.1475,0.1541,0.16,0.1619,0.1409,0.1409,0.1409,0,0,0.0929,0.0968,0.0985,0.1034,0.1047,0.1063,0.1065,0.1093,0.1115,0.1147,0.1211,0.1274,0.1319,0.1388,0.143,0.1396,0.1537,0.1482,0.1487,0.1552,0.1607,0.1628,0.1646,0.1413,0.1412,0.1411,0,0,0.0926,0.0977,0.0997,0.1021,0.1069,0.1082,0.1109,0.114,0.1159,0.1247,0.1275,0.1385,0.145,0.1494,0.1523,0.1628,0.1597,0.1607,0.1685,0.1738,0.1756,0.1773,0.1777,0.1794,0.1588,0.1588,0.1588,0,0.0918,0.0957,0.1003,0.1024,0.1055,0.1102,0.1122,0.1147,0.1216,0.128,0.1274,0.1455,0.1507,0.1614,0.1653,0.165,0.1654,0.1633,0.1749,0.1766,0.1782,0.1784,0.1801,0.159,0.159,0.159,0.1589,0,0.0902,0.0955,0.0972,0.1024,0.1056,0.1089,0.1141,0.1185,0.1248,0.1313,0.1464,0.1544,0.1655,0.1668,0.171,0.1841,0.1796,0.1765,0.1719,0.1806,0.1801,0.1819,0.1594,0.1593,0.1592,0.1592,0,0,0.0851,0.0944,0.0955,0.1,0.1069,0.1097,0.1149,0.1243,0.1316,0.1411,0.1527,0.1683,0.1771,0.1818,0.1857,0.1931,0.2049,0.1913,0.1914,0.1912,0.2134,0.1989,0.1993,0.202,0.2025,0.2029,0.2064,0,0.0837,0.0883,0.0937,0.1002,0.1042,0.1109,0.1171,0.1268,0.1358,0.1478,0.1615,0.1763,0.18,0.188,0.1961,0.2045,0.2109,0.2042,0.2061,0.2062,0.1918,0.2015,0.2044,0.2077,0.2081,0.2084,0.2087,0,0.0809,0.0859,0.0908,0.1043,0.1067,0.1112,0.1236,0.1301,0.1473,0.156,0.1714,0.1829,0.2011,0.201,0.2179,0.2125,0.2175,0.2214,0.2213,0.2098,0.1954,0.1989,0.2119,0.2116,0.2114,0.2112,0.211,0,0.0757,0.0858,0.0909,0.094,0.1068,0.1122,0.1203,0.1351,0.1449,0.164,0.1749,0.1925,0.2048,0.2138,0.2262,0.2228,0.241,0.2334,0.2241,0.2226,0.2322,0.2305,0.2479,0.2479,0.2479,0.2479,0.2479,0,0.0733,0.0782,0.0899,0.0922,0.1015,0.1125,0.125,0.1333,0.1517,0.1657,0.182,0.1928,0.2105,0.2223,0.2282,0.2318,0.2411,0.231,0.2256,0.2329,0.2313,0.2331,0.2313,0.248,0.248,0.248,0.2479,0,0.0663,0.0738,0.0801,0.0936,0.0992,0.1055,0.1259,0.1349,0.1534,0.1695,0.1783,0.1986,0.2118,0.2245,0.2391,0.2338,0.2389,0.2382,0.2457,0.2397,0.215,0.2134,0.2247,0.2243,0.2239,0.2236,0.2234,0,0.0618,0.0649,0.0772,0.0817,0.0882,0.1015,0.111,0.132,0.1411,0.17,0.1755,0.1984,0.2097,0.2166,0.2286,0.2348,0.2348,0.2331,0.2275,0.2206,0.2142,0.2131,0.2121,0.2228,0.2227,0.2226,0.2226,0,0.0535,0.0583,0.0631,0.0724,0.0817,0.092,0.1068,0.1147,0.1393,0.1575,0.1728,0.1855,0.1986,0.2075,0.2168,0.2205,0.231,0.2293,0.2299,0.2247,0.2184,0.2121,0.2115,0.2213,0.2215,0.2216,0.2217,0,0.0459,0.0466,0.0545,0.0626,0.0719,0.0796,0.0906,0.1055,0.12,0.152,0.1547,0.1779,0.195,0.2002,0.207,0.2113,0.2078,0.2007,0.2027,0.2042,0.1966,0.1855,0.1781,0,0,0,0,0,0.039,0.0404,0.0456,0.0542,0.0625,0.0687,0.086,0.0984,0.1223,0.129,0.1437,0.1562,0.1715,0.1809,0.1817,0.1957,0.2064,0.1953,0.1985,0.2146,0.216,0.2094,0,0,0,0,0,0,0.0343,0.0377,0.0416,0.0455,0.0493,0.0592,0.0689,0.0859,0.0915,0.116,0.1245,0.1434,0.1588,0.1688,0.177,0.1803,0.1787,0.2091,0.2087,0.2138,0.2151,0.2162,0.2099,0,0,0,0,0]},{"header":{"parameterUnit":"m.s-1","parameterCategory":2,"la1":30.2991,"la2":30.254,"lo1":-89.0895,"lo2":-89.0444,"dy":0.0017,"dx":0.0017,"nx":28,"ny":28,"refTime":"2024-07-23T03:00:00:Z","depth":"4","parameterNumber":3,"parameterNumberName":"V-component_of_CURRENTS"},"data":[0,0,0,0,0,0,0,0,0,0,0,0,0,0,0,0,0,0,0,0,0,0,0,0,0,0,0,0,0,0,0,0,0,0,0,0,0,0,0,0,0,0,0,0,0,0,0,0,0,0,0,0,0,0,0,0,0,0,0.0421,0.042,0,0.0417,0.0417,0.0417,0.0432,0.0432,0.0433,0.0433,0.0353,0.0351,0.0349,0,0,0,0,0,0,0,0,0,0,0,0,0,0.0426,0.0426,0.0421,0.042,0.042,0.0417,0.0417,0.0417,0.0432,0.0433,0.0433,0.0433,0.0354,0.0351,0.0349,0,0,0,0,0,0,0,0,0,0,0,0,0,0.0426,0.0426,0.0421,0.0425,0.0426,0.0417,0.0417,0.0417,0.0432,0.0433,0.0433,0.0433,0.0355,0.0352,0.0348,0.032,0,0,0.0338,0.0336,0,0,0,0,0,0,0,0,0.0426,0.0426,0.0425,0.0425,0.0425,0.0423,0.039,0.038,0.0432,0.0432,0.0433,0.0433,0.0368,0.0363,0.0367,0.0317,0.0313,0.0337,0.0335,0.0334,0.0333,0,0,0,0,0,0,0,0.0426,0.0426,0.0422,0.0425,0.0425,0.0422,0.0423,0.0388,0.0399,0.0432,0.0433,0.0428,0.0368,0.037,0.0364,0.0312,0.0337,0.0334,0.0332,0.0331,0.023,0.023,0,0,0,0,0,0,0.0421,0.0426,0.0422,0.0421,0.0423,0.0422,0.0423,0.0425,0.0401,0.0397,0.0428,0.0429,0.0376,0.0369,0.0362,0.0342,0.0334,0.033,0.0329,0.0231,0.023,0.0229,0,0,0,0,0,0,0.0422,0.0421,0.0422,0.0421,0.0421,0.0421,0.0424,0.0425,0.0434,0.0398,0.0394,0.0436,0.0376,0.0366,0.0331,0.0338,0.0329,0.0326,0.0231,0.0231,0.023,0.0291,0,0,0,0,0,0,0.0422,0.0422,0.0431,0.0421,0.042,0.0423,0.0424,0.0425,0.0428,0.043,0.0402,0.0396,0.0375,0.0336,0.0328,0.0333,0.0323,0.0232,0.0231,0.023,0.029,0.0292,0.0295,0,0,0,0,0,0.0422,0.0431,0.0432,0.0431,0.0431,0.0423,0.0423,0.0426,0.0429,0.0435,0.041,0.0397,0.0323,0.0333,0.0323,0.0327,0.0233,0.0231,0.023,0.0289,0.0292,0.0295,0,0,0,0,0,0,0.044,0.0433,0.0433,0.0441,0.0435,0.0425,0.0431,0.0429,0.0417,0.042,0.0387,0.0378,0.0348,0.0322,0.0334,0.0292,0.0276,0.0273,0.0324,0.0327,0.0329,0.0321,0.032,0,0,0,0,0,0.0446,0.0452,0.0441,0.0448,0.0446,0.044,0.0439,0.0441,0.0425,0.0423,0.0401,0.037,0.0334,0.0319,0.0285,0.0262,0.0205,0.0256,0.0259,0.0261,0.0246,0.0151,0.0144,0.0225,0.0225,0.0225,0,0,0.0458,0.0451,0.0458,0.0452,0.045,0.0457,0.0442,0.0446,0.0451,0.0411,0.0411,0.0375,0.0326,0.0304,0.0289,0.0285,0.0213,0.0259,0.0262,0.0245,0.0149,0.0141,0.0134,0.0224,0.0224,0.0224,0,0,0.0479,0.0475,0.049,0.0487,0.0482,0.0474,0.0475,0.0469,0.0468,0.0453,0.0424,0.0383,0.0347,0.0309,0.0283,0.0271,0.0225,0.0274,0.0286,0.0196,0.0188,0.018,0.0124,0.0111,0.0281,0.0281,0.0281,0,0.0492,0.0513,0.0492,0.0503,0.0509,0.0484,0.0505,0.0492,0.0476,0.0466,0.046,0.0379,0.0342,0.0291,0.0293,0.0276,0.0229,0.0287,0.0199,0.019,0.0181,0.0125,0.0109,0.0283,0.0283,0.0283,0.0283,0,0.0527,0.0547,0.0552,0.056,0.0558,0.0572,0.0549,0.0544,0.0532,0.0513,0.0464,0.0402,0.0353,0.0338,0.0313,0.0243,0.0232,0.0211,0.0196,0.0177,0.0119,0.0102,0.0287,0.0286,0.0286,0.0285,0,0,0.055,0.0577,0.0581,0.0602,0.0596,0.0598,0.0594,0.058,0.0577,0.0532,0.0511,0.0432,0.0394,0.0359,0.0316,0.0236,0.0146,0.0207,0.0201,0.0159,-0.0033,-0.0013,-0.0029,0.0113,0.011,0.0107,-0.0038,0,0.059,0.0636,0.0633,0.0674,0.0698,0.0673,0.0677,0.0653,0.0618,0.0586,0.0493,0.0457,0.0404,0.0388,0.0293,0.0179,0.01,0.0189,-0.0017,-0.0023,0.0003,-0.005,0.0097,-0.0051,-0.0055,-0.0058,-0.006,0,0.0626,0.0656,0.0717,0.0746,0.0754,0.0773,0.0765,0.0763,0.0696,0.067,0.059,0.052,0.0402,0.0363,0.0133,0.0196,0.0084,-0.0011,-0.0019,-0.0041,-0.0036,-0.0039,-0.0092,-0.009,-0.0087,-0.0085,-0.0083,0,0.0656,0.0706,0.0763,0.0776,0.0805,0.0826,0.0834,0.0795,0.0797,0.072,0.0702,0.0546,0.0475,0.0293,0.0099,0.0113,-0.0157,-0.016,-0.0252,-0.025,-0.0249,-0.024,-0.0336,-0.0336,-0.0335,-0.0335,-0.0335,0,0.069,0.0731,0.0792,0.0822,0.0888,0.0884,0.0928,0.0906,0.0879,0.0865,0.0754,0.0685,0.0449,0.0273,0.0098,-0.0132,-0.0164,-0.0273,-0.0303,-0.0214,-0.02,-0.0259,-0.0248,-0.034,-0.0339,-0.0338,-0.0337,0,0.0698,0.0746,0.0811,0.0876,0.0909,0.0949,0.101,0.1022,0.1,0.0971,0.0953,0.0773,0.0543,0.0314,0.001,-0.012,-0.0342,-0.0411,-0.0285,-0.0301,-0.037,-0.0354,-0.0532,-0.0533,-0.0534,-0.0534,-0.0535,0,0.0698,0.0744,0.0852,0.09,0.0938,0.1013,0.1064,0.1084,0.108,0.1006,0.0971,0.0779,0.0635,0.0227,-0.0019,-0.0342,-0.0382,-0.0481,-0.0451,-0.0387,-0.0399,-0.0381,-0.0365,-0.0536,-0.0536,-0.0536,-0.0537,0,0.0694,0.0749,0.0801,0.0918,0.0995,0.107,0.1127,0.1142,0.1136,0.1131,0.0976,0.0778,0.0522,0.0213,-0.0027,-0.0265,-0.0413,-0.0489,-0.0489,-0.0462,-0.0394,-0.0401,-0.0384,-0.0539,-0.0539,-0.0539,-0.0538,0,0.0682,0.072,0.0814,0.0905,0.0994,0.1059,0.1118,0.111,0.1125,0.1051,0.0987,0.0741,0.0592,0.025,0.0011,-0.0201,-0.0253,-0.0312,-0.0322,-0.0322,-0.0213,-0.0093,-0.0193,0,0,0,0,0,0.0661,0.0707,0.0791,0.0897,0.098,0.1042,0.111,0.1153,0.1166,0.107,0.1037,0.0806,0.0458,0.0284,0.0073,-0.0012,-0.0295,-0.0266,-0.0369,-0.0553,-0.055,-0.0457,0,0,0,0,0,0,0.0646,0.0722,0.0776,0.0859,0.0921,0.1027,0.1066,0.1098,0.1034,0.1017,0.0823,0.0762,0.0409,0.0581,0.007,0.0004,-0.0088,-0.0422,-0.0426,-0.0555,-0.0552,-0.055,-0.0452,0,0,0,0,0]}]]